Location: Lake_James_State_Park
(35.7270°N, 81.9020°W)
Time: 04:59:17
(UTC-04:00)

Daily predictions for brighter satellites

Satellite Brightness Start Highest point End
(mag) Time Altitude Azimuth Time Altitude Azimuth Time Altitude Azimuth
ADEOS II 4.4 04:24:05 10° NNE 04:25:34 18° NE 04:25:34 18° NE
Milstar 3 3.6 04:45:27 39° SE 04:45:27 39° SE 04:50:22 10° ESE
SJ 16-02 4.5 04:47:59 10° ESE 04:49:10 11° E 04:50:23 10° ENE
Nadezhda 1 Rocket 4.1 05:08:43 67° N 05:08:43 67° N 05:14:07 10° N
Cosmos 2369 Rocket 4.5 05:14:25 12° N 05:14:25 12° N 05:14:57 10° N
CZ-3 R/B 4.0 05:05:18 41° W 05:16:36 59° SSW 05:26:42 10° SE
OAO 2 Rocket 3.9 05:18:17 54° ESE 05:18:17 54° ESE 05:22:09 10° E
CZ-4C R/B 2.9 05:14:33 41° NNW 05:17:36 86° ENE 05:25:43 10° SSE
NOSS 3-1 (C) 3.2 05:27:28 71° SSW 05:28:09 87° ESE 05:34:24 10° NNE
USA 229 DEB 4.0 05:30:27 47° NW 05:30:27 47° NW 05:36:44 10° NNE
Okean O Rocket 2.1 05:25:42 10° NNE 05:29:15 56° NE 05:29:15 56° NE
USA 229 4.0 05:30:31 47° NW 05:30:31 47° NW 05:36:49 10° NNE
Meteor 1-31 Rocket 4.3 05:30:33 10° NNE 05:34:03 35° E 05:37:34 10° SSE
NOSS 3-1 (A) 3.5 05:31:55 36° S 05:34:16 67° ESE 05:40:27 10° NE
Cosmos-2242 4.4 05:31:29 10° N 05:35:30 39° E 05:39:33 10° SSE
Cosmos 44 4.4 05:38:35 32° S 05:38:35 32° S 05:41:20 10° SSE
Tiangong 2 3.2 05:38:00 28° E 05:38:00 28° E 05:39:45 10° E
Cosmos 1833 4.2 05:40:54 57° SW 05:40:54 57° SW 05:45:48 10° S
BREEZE-M DEB (TANK) 3.3 05:42:44 45° NNW 05:42:44 45° NNW 05:50:05 10° NE
Cosmos 2219 4.3 05:37:19 10° N 05:42:43 44° ENE 05:48:03 10° SE
GPS 2-04 Rocket1 3.5 05:43:54 42° SE 05:43:54 42° SE 05:46:37 10° ESE
USA 267 3.2 05:36:48 10° SSE 05:43:15 64° SW 05:45:25 42° WNW
Cosmos 2154 Rocket 3.9 05:38:56 10° N 05:45:15 74° W 05:51:31 10° S
Cosmos 1656 Rocket 4.0 05:49:54 44° WNW 05:49:54 44° WNW 05:55:05 10° N
Shenzhou-11 Module 3.8 05:52:02 28° SE 05:52:02 28° SE 05:53:40 10° SE
Meteor 2-5 Rocket 3.8 05:47:21 10° S 05:53:16 88° E 05:59:08 10° N
PAYLOAD B 4.1 05:52:57 10° N 05:58:23 63° WNW 06:03:49 10° SSW
Cosmos 44 Rocket 4.2 06:03:21 30° SW 06:03:21 30° SW 06:06:40 10° S
CZ-4B DEB 4.2 05:58:06 10° N 06:03:30 60° WNW 06:08:54 10° SSW
Cosmos 372 Rocket 3.9 06:02:29 10° SSW 06:07:41 83° WNW 06:12:57 10° NNE
ADEOS II 3.6 06:04:21 10° NNW 06:06:30 19° NW 06:06:30 19° NW
Meteor 1-16 Rocket 4.2 06:03:04 10° N 06:08:48 85° W 06:14:39 10° S
Cosmos 1943 Rocket 4.2 06:11:16 12° NNW 06:11:16 12° NNW 06:12:08 10° NNW
Cosmos 468 4.5 06:05:05 10° NNW 06:10:25 88° ENE 06:15:44 10° SSE
Landsat 4 3.7 06:09:51 10° SSE 06:13:37 84° ENE 06:17:24 10° N
CZ-4B R/B 3.4 06:11:58 10° N 06:17:13 49° WNW 06:22:33 10° SW
IDEFIX/ARIANE 42P 4.4 06:14:28 10° NNE 06:19:11 33° E 06:23:50 10° SSE
Meteor 2-14 Rocket 4.4 06:14:46 10° N 06:20:51 89° W 06:26:56 10° S
Cosmos 1125 Rocket 3.6 06:17:21 10° SSW 06:22:28 54° WNW 06:27:38 10° N
Cosmos 2218 Rocket 4.1 06:16:20 10° N 06:22:36 80° E 06:28:55 10° S
Meteor 1-28 Rocket 3.2 06:21:38 10° SSE 06:25:26 82° ENE 06:29:14 10° N
SJ 16-02 1.4 06:22:57 10° SSW 06:27:13 51° WNW 06:31:31 10° N
ERBS 3.5 06:24:42 12° NNW 06:27:36 41° NE 06:30:54 10° ESE
IRS-1C Rocket 4.4 06:22:51 10° N 06:27:48 43° WNW 06:32:45 10° SW
CZ-4B R/B 4.3 06:24:03 10° N 06:28:21 48° WNW 06:32:40 10° SSW
Meteor PRIRODA 4.3 06:25:13 10° N 06:28:36 32° WNW 06:30:16 22° WSW
CZ-3 Stage 3 3.9 06:27:13 20° WSW 06:30:33 65° S 06:55:19 10° E
Cosmos 1356 Rocket 4.2 06:28:17 18° SW 06:30:44 31° WNW 06:34:36 10° NNW
NOAA 6 4.2 06:26:27 10° NNE 06:31:38 80° ESE 06:36:46 10° S
MTI 3.7 06:30:33 10° S 06:33:48 82° W 06:37:03 10° NNW
Cosmos 2181 Rocket 4.3 06:30:11 10° SSW 06:36:01 41° WNW 06:41:49 10° N
Cosmos 2341 Rocket 4.4 06:31:05 10° NNW 06:36:57 40° W 06:42:48 10° SSW
Intercosmos 24 3.9 06:36:00 10° NNW 06:40:23 56° W 06:43:55 10° S
MINOTAUR R/B 4.4 06:39:33 10° NNW 06:42:11 69° ENE 06:44:48 10° SSE
SKYMED 2 3.8 06:38:06 10° SSE 06:42:25 74° ENE 06:46:45 10° N
Cosmos 2278 4.1 06:37:50 10° S 06:43:25 69° ESE 06:49:03 10° NNE
NOSS 2-3 (D) 4.4 06:42:26 10° SSW 06:46:55 61° ESE 06:51:56 10° NE
USA 116 4.0 06:46:29 10° SSW 06:49:44 38° W 06:53:22 10° NNW
Meteor 1-24 Rocket 4.2 06:48:08 10° SSW 06:53:51 44° WNW 06:59:30 10° N
Cosmos 1048 Rocket 4.2 06:50:12 10° NNW 06:55:11 48° WSW 07:00:12 10° S
CZ-2C R/B 3.2 06:50:25 10° NNE 06:55:21 59° E 07:00:23 10° S
SL-08 R/B 4.5 06:49:18 10° NNW 06:55:26 67° W 07:01:37 10° S
Cosmos 1674 2.5 06:54:20 10° S 06:58:03 78° W 07:01:47 10° N
Cosmos 2227 Rocket 2.6 06:53:53 10° NNW 06:59:34 71° ENE 07:05:13 10° SSE
OAO 2 Rocket 3.8 06:57:15 12° W 07:01:47 48° SSW 07:06:31 10° SE
SWAS 4.4 06:59:02 10° NNW 07:03:21 71° WSW 07:07:38 10° SSE
CZ-4C R/B 4.2 07:00:44 10° WNW 07:05:37 18° WSW 07:10:41 10° SSW
ATLAS 2AS CENTAUR R/B 3.6 07:05:36 10° SSW 07:13:03 64° ESE 07:21:01 10° NE
Tiangong 2 2.5 07:10:40 10° W 07:13:23 25° SW 07:16:06 10° SSE
